User: anonymous   Login
Location: Dompnac
(44.5644°N, 4.1026°E)
Time: 12:01:18
(UTC+00:00)
Language:

CSL-04 Rocket - Orbit

View from above orbital plane
View from above orbital plane
View from above satellite
View from above satellite

Ground track
Ground track

The orbit data is extracted from the following two-line orbital elements,

1 25732U 99025C   21167.07707050 -.00000017  00000-0  14048-4 0  9997
2 25732  98.9018 203.5316 0036291 253.2250 126.2397 14.17694290143489
Epoch (UTC): 16 June 2021 01:50:58
Eccentricity: 0.0036291
inclination: 98.9018°
perigee height: 807 km
apogee height: 859 km
right ascension of ascending node: 203.5316°
argument of perigee: 253.2250°
revolutions per day: 14.17694290
mean anomaly at epoch: 126.2397°
orbit number at epoch: 14348

The dashed part of the orbit path shows where the satellite is in the earth's shadow,  

DLR